| time (UTC) | temp F | wind direction | speed MPH | gust MPH | rain 1hr in | rain 24hr in | rain mn in | humidity % | barometer mb |
| 20260509044519 | 54 | 205 | 2.0 | 6.0 | 0.06 | 0.61 | 0.06 | 95 | 1008.5 |
| 20260509043015 | 54 | 196 | 2.0 | 8.0 | 0.06 | 0.59 | 0.04 | 95 | 1008.4 |
| 20260509041517 | 54 | 187 | 1.0 | 9.0 | 0.06 | 0.56 | 0.02 | 95 | 1008.6 |
| 20260509040012 | 54 | 184 | 3.0 | 8.0 | 0.08 | 0.56 | 0.01 | 95 | 1008.6 |
| 20260509034509 | 54 | 188 | 2.0 | 7.0 | 0.07 | 0.54 | 0.54 | 95 | 1008.6 |
| 20260509033009 | 55 | 173 | 1.0 | 5.0 | 0.13 | 0.53 | 0.53 | 95 | 1008.7 |
| 20260509031509 | 55 | 184 | 2.0 | 9.0 | 0.16 | 0.51 | 0.51 | 95 | 1008.7 |
| 20260509030008 | 55 | 175 | 2.0 | 8.0 | 0.16 | 0.48 | 0.48 | 95 | 1008.9 |
| 20260509024507 | 55 | 188 | 3.0 | 7.0 | 0.17 | 0.47 | 0.47 | 95 | 1009.1 |
| 20260509023005 | 55 | 216 | 0.0 | 4.0 | 0.12 | 0.40 | 0.40 | 94 | 1009.3 |
| 20260509021505 | 55 | 218 | 1.0 | 10.0 | 0.07 | 0.35 | 0.35 | 94 | 1009.2 |
| 20260509020005 | 55 | 174 | 5.0 | 12.0 | 0.06 | 0.32 | 0.32 | 94 | 1009.1 |
| 20260509014504 | 55 | 186 | 1.0 | 9.0 | 0.05 | 0.30 | 0.30 | 94 | 1009.0 |
| 20260509013003 | 55 | 204 | 0.0 | 3.0 | 0.06 | 0.28 | 0.28 | 94 | 1009.1 |
| 20260509011502 | 55 | 192 | 1.0 | 5.0 | 0.10 | 0.28 | 0.28 | 94 | 1008.9 |
| 20260509010002 | 55 | 189 | 1.0 | 5.0 | 0.11 | 0.26 | 0.26 | 94 | 1008.7 |
| 20260509004501 | 55 | 210 | 0.0 | 3.0 | 0.10 | 0.24 | 0.24 | 94 | 1008.7 |
| 20260509003101 | 55 | 184 | 0.0 | 4.0 | 0.11 | 0.22 | 0.22 | 94 | 1008.8 |
| 20260509001600 | 55 | 246 | 0.0 | 4.0 | 0.10 | 0.18 | 0.18 | 94 | 1009.1 |
| 20260509000100 | 55 | 236 | 0.0 | 4.0 | 0.08 | 0.15 | 0.15 | 93 | 1009.1 |
| 20260508234600 | 55 | 180 | 0.0 | 2.0 | 0.09 | 0.14 | 0.14 | 93 | 1008.9 |
| 20260508233110 | 55 | 275 | 0.0 | 6.0 | 0.09 | 0.11 | 0.11 | 93 | 1009.0 |
| 20260508231559 | 56 | 313 | 0.0 | 0.0 | 0.07 | 0.08 | 0.08 | 92 | 1009.2 |
| 20260508230105 | 56 | 313 | 0.0 | 0.0 | 0.07 | 0.07 | 0.07 | 91 | 1009.1 |
| 20260508224556 | 56 | 313 | 0.0 | 3.0 | 0.05 | 0.05 | 0.05 | 90 | 1009.2 |
| 20260508223055 | 57 | 331 | 2.0 | 4.0 | 0.02 | 0.02 | 0.02 | 89 | 1009.3 |
| 20260508221553 | 58 | 324 | 1.0 | 6.0 | 0.01 | 0.01 | 0.01 | 85 | 1009.3 |
| 20260508220054 | 59 | 269 | 3.0 | 11.0 | 0.00 | 0.00 | 0.00 | 76 | 1008.9 |
| 20260508214548 | 60 | 238 | 4.0 | 11.0 | 0.00 | 0.00 | 0.00 | 69 | 1008.9 |
| 20260508213047 | 62 | 219 | 3.0 | 8.0 | 0.00 | 0.00 | 0.00 | 65 | 1008.6 |
| 20260508211546 | 63 | 220 | 1.0 | 4.0 | 0.00 | 0.00 | 0.00 | 63 | 1008.4 |
| 20260508210046 | 64 | 201 | 2.0 | 4.0 | 0.00 | 0.00 | 0.00 | 60 | 1008.5 |
| 20260508204547 | 64 | 209 | 1.0 | 3.0 | 0.00 | 0.00 | 0.00 | 60 | 1008.4 |
| 20260508203044 | 64 | 215 | 0.0 | 4.0 | 0.00 | 0.00 | 0.00 | 60 | 1008.5 |
| 20260508201543 | 64 | 186 | 0.0 | 5.0 | 0.00 | 0.00 | 0.00 | 60 | 1008.8 |
| 20260508200051 | 64 | 209 | 0.0 | 3.0 | 0.00 | 0.00 | 0.00 | 59 | 1009.1 |
| 20260508194538 | 64 | 240 | 0.0 | 2.0 | 0.00 | 0.00 | 0.00 | 60 | 1009.3 |
| 20260508193036 | 64 | 189 | 0.0 | 2.0 | 0.00 | 0.00 | 0.00 | 61 | 1009.6 |
| 20260508191534 | 64 | 188 | 0.0 | 4.0 | 0.00 | 0.00 | 0.00 | 59 | 1009.8 |
| 20260508190041 | 64 | 208 | 2.0 | 5.0 | 0.00 | 0.00 | 0.00 | 56 | 1010.0 |
| 20260508184537 | 64 | 209 | 2.0 | 8.0 | 0.00 | 0.00 | 0.00 | 57 | 1010.2 |
| 20260508183031 | 64 | 210 | 3.0 | 7.0 | 0.00 | 0.00 | 0.00 | 54 | 1010.1 |
| 20260508181530 | 64 | 278 | 2.0 | 6.0 | 0.00 | 0.00 | 0.00 | 55 | 1010.3 |
| 20260508180029 | 65 | 198 | 3.0 | 8.0 | 0.00 | 0.00 | 0.00 | 55 | 1010.4 |
| 20260508174536 | 66 | 226 | 3.0 | 8.0 | 0.00 | 0.00 | 0.00 | 54 | 1010.3 |
| 20260508173025 | 66 | 188 | 3.0 | 12.0 | 0.00 | 0.00 | 0.00 | 56 | 1010.6 |
| 20260508171523 | 66 | 192 | 4.0 | 11.0 | 0.00 | 0.00 | 0.00 | 55 | 1011.0 |
| 20260508170019 | 65 | 219 | 2.0 | 13.0 | 0.00 | 0.00 | 0.00 | 58 | 1011.3 |
| 20260508164525 | 64 | 205 | 2.0 | 9.0 | 0.00 | 0.00 | 0.00 | 60 | 1011.7 |
| 20260508163013 | 65 | 195 | 4.0 | 13.0 | 0.00 | 0.00 | 0.00 | 58 | 1011.8 |
| 20260508161513 | 63 | 223 | 2.0 | 10.0 | 0.00 | 0.00 | 0.00 | 58 | 1012.0 |
| 20260508160010 | 62 | 227 | 2.0 | 9.0 | 0.00 | 0.00 | 0.00 | 58 | 1012.0 |
| 20260508154509 | 63 | 189 | 3.0 | 6.0 | 0.00 | 0.00 | 0.00 | 55 | 1012.1 |
| 20260508153007 | 63 | 193 | 3.0 | 7.0 | 0.00 | 0.00 | 0.00 | 57 | 1012.1 |
| 20260508151504 | 62 | 225 | 3.0 | 11.0 | 0.00 | 0.00 | 0.00 | 59 | 1012.2 |
| 20260508150005 | 62 | 236 | 2.0 | 14.0 | 0.00 | 0.00 | 0.00 | 59 | 1012.4 |
| 20260508144559 | 61 | 200 | 3.0 | 9.0 | 0.00 | 0.00 | 0.00 | 58 | 1012.5 |
| 20260508143057 | 60 | 199 | 4.0 | 10.0 | 0.00 | 0.00 | 0.00 | 61 | 1012.6 |
| 20260508141553 | 59 | 192 | 5.0 | 12.0 | 0.00 | 0.00 | 0.00 | 61 | 1012.8 |
| 20260508140049 | 58 | 205 | 3.0 | 13.0 | 0.00 | 0.00 | 0.00 | 61 | 1012.9 |
| 20260508134545 | 57 | 222 | 2.0 | 6.0 | 0.00 | 0.00 | 0.00 | 64 | 1013.0 |
| 20260508133041 | 56 | 214 | 1.0 | 4.0 | 0.00 | 0.00 | 0.00 | 64 | 1013.2 |
| 20260508131536 | 54 | 198 | 1.0 | 8.0 | 0.00 | 0.00 | 0.00 | 66 | 1013.3 |
| 20260508130044 | 53 | 190 | 1.0 | 8.0 | 0.00 | 0.00 | 0.00 | 68 | 1013.1 |
| 20260508124532 | 52 | 196 | 3.0 | 6.0 | 0.00 | 0.00 | 0.00 | 69 | 1013.2 |
| 20260508123029 | 51 | 194 | 1.0 | 5.0 | 0.00 | 0.00 | 0.00 | 70 | 1013.3 |
| 20260508121528 | 51 | 195 | 1.0 | 3.0 | 0.00 | 0.00 | 0.00 | 69 | 1013.4 |
| 20260508120028 | 50 | 220 | 1.0 | 6.0 | 0.00 | 0.00 | 0.00 | 71 | 1013.2 |
| 20260508114527 | 49 | 194 | 2.0 | 8.0 | 0.00 | 0.00 | 0.00 | 70 | 1013.0 |
| 20260508113024 | 49 | 192 | 2.0 | 7.0 | 0.00 | 0.00 | 0.00 | 71 | 1013.0 |
| 20260508111523 | 48 | 179 | 3.0 | 6.0 | 0.00 | 0.00 | 0.00 | 70 | 1012.9 |
| 20260508110021 | 48 | 192 | 2.0 | 7.0 | 0.00 | 0.00 | 0.00 | 69 | 1012.8 |
| 20260508104533 | 49 | 194 | 1.0 | 5.0 | 0.00 | 0.00 | 0.00 | 69 | 1012.8 |
| 20260508103020 | 49 | 194 | 1.0 | 4.0 | 0.00 | 0.00 | 0.00 | 67 | 1012.7 |
| 20260508101515 | 50 | 180 | 1.0 | 4.0 | 0.00 | 0.00 | 0.00 | 65 | 1012.7 |
| 20260508100015 | 50 | 188 | 1.0 | 5.0 | 0.00 | 0.00 | 0.00 | 66 | 1012.6 |
| 20260508094509 | 51 | 192 | 1.0 | 2.0 | 0.00 | 0.00 | 0.00 | 65 | 1012.7 |
| 20260508093008 | 51 | 215 | 0.0 | 3.0 | 0.00 | 0.00 | 0.00 | 64 | 1012.7 |
| 20260508091507 | 52 | 215 | 1.0 | 3.0 | 0.00 | 0.00 | 0.00 | 64 | 1012.7 |
| 20260508090006 | 52 | 220 | 1.0 | 3.0 | 0.00 | 0.00 | 0.00 | 63 | 1012.9 |
| 20260508084505 | 52 | 238 | 1.0 | 4.0 | 0.00 | 0.00 | 0.00 | 63 | 1013.0 |
| 20260508083003 | 52 | 234 | 1.0 | 8.0 | 0.00 | 0.00 | 0.00 | 63 | 1013.1 |
| 20260508081501 | 52 | 240 | 1.0 | 4.0 | 0.00 | 0.00 | 0.00 | 64 | 1013.1 |
| 20260508080111 | 51 | 222 | 1.0 | 4.0 | 0.00 | 0.00 | 0.00 | 64 | 1013.0 |
| 20260508074557 | 51 | 219 | 1.0 | 3.0 | 0.00 | 0.00 | 0.00 | 65 | 1013.2 |
| 20260508073059 | 51 | 205 | 1.0 | 4.0 | 0.00 | 0.00 | 0.00 | 66 | 1013.1 |
| 20260508071602 | 51 | 174 | 1.0 | 3.0 | 0.00 | 0.00 | 0.00 | 66 | 1013.1 |
| 20260508070139 | 51 | 166 | 1.0 | 2.0 | 0.00 | 0.00 | 0.00 | 66 | 1013.3 |
| 20260508064606 | 51 | 160 | 1.0 | 4.0 | 0.00 | 0.00 | 0.00 | 65 | 1013.4 |
| 20260508063052 | 51 | 198 | 1.0 | 4.0 | 0.00 | 0.00 | 0.00 | 65 | 1013.4 |
| 20260508061554 | 51 | 196 | 1.0 | 4.0 | 0.00 | 0.00 | 0.00 | 64 | 1013.5 |
| 20260508060049 | 51 | 186 | 1.0 | 4.0 | 0.00 | 0.00 | 0.00 | 65 | 1013.7 |
| 20260508054548 | 51 | 211 | 1.0 | 4.0 | 0.00 | 0.00 | 0.00 | 65 | 1013.6 |
| 20260508053101 | 51 | 220 | 1.0 | 4.0 | 0.00 | 0.00 | 0.00 | 65 | 1013.5 |
| 20260508051551 | 51 | 186 | 1.0 | 5.0 | 0.00 | 0.00 | 0.00 | 65 | 1013.7 |
| 20260508050045 | 51 | 192 | 1.0 | 7.0 | 0.00 | 0.00 | 0.00 | 65 | 1013.6 |